Spokane Fairchild, WA
on Wednesday, February 13, 2013

Wednesday
Previous Day Next Day
Daily Summary
 ActualAverage (KGEG)Record (KGEG)
Temperature
Mean Temperature °F 32°F  
Max Temperature 41°F 39°F 58°F (1898)
Min Temperature 26°F 26°F -16°F (1884)
Degree Days
Heating Degree Days 32 32  
Month to date heating degree days 430  
Since 1 July heating degree days 4363  
Cooling Degree Days 0 0  
Month to date cooling degree days 0  
Year to date cooling degree days 0  
Moisture
Dew Point 30°F   
Average Humidity 83    
Maximum Humidity 97    
Minimum Humidity 61    
Precipitation
Precipitation 0.00 in 0.04 in 0.74 in (1976)
Month to date precipitation 0.61  
Year to date precipitation 2.40  
Snow
Snow 0.00 in 0.30 in 3.40 in (1937)
Month to date snowfall 3.5  
Since 1 July snowfall 37.0  
Snow Depth in   
Wind
Wind Speed 11 mph   
Max Wind Speed 22 mph   
Max Gust Speed 28 mph   
Visibility 10 miles   
Events     

Key: T is trace of precipitation, MM is missing value
Source: NWS Daily Summary
Time(PST)TemperatureDew PointHumidity Pressure Visibility Wind DirectionWind SpeedGust SpeedPrecipitationEvents Conditions
12:08 AM 37.4°F 33.8°F 87% 30.11 in 10.0 miles SSW 10.4 mph - N/A   Mostly Cloudy
12:58 AM 36.1°F 33.4°F 90% 30.18 in 10.0 miles SSW 8.1 mph - 0.00 in   Overcast
1:16 AM 35.6°F 32.0°F 87% 30.12 in 10.0 miles SSW 6.9 mph - N/A   Overcast
1:36 AM 35.6°F 32.0°F 87% 30.12 in 10.0 miles SW 5.8 mph - N/A   Overcast
1:58 AM 36.0°F 33.8°F 92% 30.19 in 10.0 miles SW 10.4 mph - 0.00 in   Overcast
2:58 AM 35.1°F 34.2°F 97% 30.17 in 10.0 miles SSW 11.5 mph - N/A   Clear
3:05 AM 35.6°F 33.8°F 93% 30.10 in 10.0 miles SSW 12.7 mph - N/A   Partly Cloudy
3:21 AM 35.6°F 33.8°F 93% 30.10 in 10.0 miles SW 12.7 mph - N/A   Partly Cloudy
3:35 AM 35.6°F 33.8°F 93% 30.11 in 10.0 miles SSW 11.5 mph - N/A   Partly Cloudy
3:45 AM 35.6°F 33.8°F 93% 30.11 in 10.0 miles SW 12.7 mph - N/A   Clear
3:46 AM 35.6°F 33.8°F 93% 30.11 in 10.0 miles SSW 12.7 mph - N/A   Clear
3:58 AM 35.1°F 34.2°F 97% 30.17 in 10.0 miles SW 12.7 mph - 0.00 in   Clear
4:05 AM 35.6°F 33.8°F 93% 30.11 in 10.0 miles SW 15.0 mph - N/A   Clear
4:58 AM 34.5°F 33.4°F 96% 30.19 in 10.0 miles SW 12.7 mph - 0.00 in   Clear
5:47 AM 33.8°F 32.0°F 93% 30.12 in 10.0 miles SW 17.3 mph - N/A   Clear
5:58 AM 34.3°F 32.9°F 94% 30.19 in 10.0 miles SW 21.9 mph 27.6 mph 0.00 in   Clear
6:58 AM 34.7°F 32.4°F 91% 30.18 in 10.0 miles SSW 18.4 mph - 0.00 in   Clear
6:59 AM 35.6°F 32.0°F 87% 30.13 in 10.0 miles SSW 18.4 mph - N/A   Clear
7:12 AM 35.6°F 32.0°F 87% 30.13 in 10.0 miles SSW 20.7 mph - N/A   Clear
7:30 AM 35.6°F 32.0°F 87% 30.14 in 10.0 miles SSW 15.0 mph - N/A   Clear
7:55 AM 35.6°F 32.0°F 87% 30.14 in 10.0 miles SSW 15.0 mph - N/A   Clear
8:55 AM 37.4°F 32.0°F 81% 30.17 in 10.0 miles WSW 11.5 mph - N/A   Clear
9:55 AM 39.2°F 32.0°F 75% 30.19 in 10.0 miles WSW 11.5 mph - N/A   Clear
10:42 AM 41.0°F 32.0°F 70% 30.19 in 10.0 miles West 15.0 mph - N/A   Clear
10:52 AM 41.0°F 32.0°F 70% 30.19 in 10.0 miles WSW 11.5 mph - N/A   Clear
10:55 AM 41.0°F 32.0°F 70% 30.19 in 10.0 miles West 10.4 mph - N/A   Clear
11:55 AM 39.7°F 31.6°F 73% 30.24 in 10.0 miles West 9.2 mph - N/A   Clear
12:55 PM 40.1°F 30.7°F 69% 30.24 in 10.0 miles WSW 10.4 mph - N/A   Partly Cloudy
1:46 PM 41.0°F 28.4°F 61% 30.18 in 10.0 miles WSW 13.8 mph - N/A   Scattered Clouds
1:55 PM 41.0°F 28.4°F 61% 30.18 in 10.0 miles WSW 13.8 mph - N/A   Mostly Cloudy
1:57 PM 39.2°F 28.4°F 65% 30.18 in 10.0 miles WSW 15.0 mph - N/A   Scattered Clouds
2:55 PM 37.9°F 29.7°F 72% 30.25 in 10.0 miles WSW 11.5 mph - N/A   Partly Cloudy
3:55 PM 37.2°F 28.8°F 71% 30.27 in 10.0 miles WSW 10.4 mph - N/A   Scattered Clouds
4:55 PM 35.6°F 30.2°F 81% 30.20 in 10.0 miles West 10.4 mph - N/A   Overcast
5:58 PM 32.5°F 28.2°F 84% 30.28 in 10.0 miles WSW 10.4 mph - N/A   Partly Cloudy
6:41 PM 32.0°F 26.6°F 80% 30.22 in 10.0 miles West 9.2 mph - N/A   Clear
6:47 PM 32.0°F 26.6°F 80% 30.22 in 10.0 miles West 9.2 mph - N/A   Clear
6:58 PM 32.0°F 27.0°F 82% 30.30 in 10.0 miles West 8.1 mph - 0.00 in   Clear
7:58 PM 30.4°F 26.1°F 84% 30.24 in 10.0 miles West 8.1 mph - N/A   Clear
8:58 PM 29.1°F 25.0°F 85% 30.26 in 10.0 miles West 5.8 mph - N/A   Clear
9:58 PM 29.3°F 24.1°F 81% 30.27 in 10.0 miles Variable 3.5 mph - N/A   Clear
10:41 PM 26.6°F 24.8°F 93% 30.28 in 10.0 miles SW 4.6 mph - N/A   Partly Cloudy
10:51 PM 30.2°F 24.8°F 80% 30.29 in 10.0 miles WSW 3.5 mph - N/A   Partly Cloudy
10:58 PM 29.7°F 24.1°F 80% 30.36 in 10.0 miles West 3.5 mph - 0.00 in   Scattered Clouds
11:36 PM 28.4°F 23.0°F 80% 30.30 in 10.0 miles West 2.3 mph - N/A   Scattered Clouds
11:53 PM 30.2°F 23.0°F 75% 30.31 in 10.0 miles SSW 2.3 mph - N/A   Partly Cloudy
11:58 PM 29.8°F 23.2°F 76% 30.38 in 10.0 miles WSW 1.2 mph - 0.00 in   Partly Cloudy
Moon Phase
Feb. 13 Feb. 17 Feb. 25 Mar. 04 Mar. 11
Sunrise:06:58 AM (PST) Moon Rise:08:10 AM (PST)2/13
Sunset:05:11 PM (PST) Moon Set:09:41 PM (PST)2/13

Copyright © 2014 The Weather Underground, Inc.